This is the latest recevied weather packets stored in our database for station/object PY5AL-13. If no packets are shown the sender has not sent any weather packets the latest 10 day(s).
| Time | Temp. | Humidity | Pressure | Rain* | Wind** | Luminosity | Snow |
|---|---|---|---|---|---|---|---|
| 1788595671 | 21.67° C | 67% | 1015.5 hPa | - | - | - | - |
| 1788594471 | 21.67° C | 67% | 1015.6 hPa | - | - | - | - |
| 1788593271 | 22.22° C | 67% | 1015.4 hPa | - | - | - | - |
| 1788592072 | 22.22° C | 67% | 1015.6 hPa | - | - | - | - |
| 1788590872 | 22.22° C | 66% | 1015.9 hPa | - | - | - | - |
| 1788589672 | 22.22° C | 66% | 1016 hPa | - | - | - | - |
| 1788588472 | 22.22° C | 66% | 1016.5 hPa | - | - | - | - |
| 1788587272 | 22.22° C | 66% | 1016.1 hPa | - | - | - | - |
| 1788586072 | 22.22° C | 66% | 1015.9 hPa | - | - | - | - |
| 1788584872 | 22.22° C | 65% | 1016.4 hPa | - | - | - | - |
| 1788562073 | 23.89° C | 60% | 1016.4 hPa | - | - | - | - |
| 1788559673 | 23.89° C | 60% | 1016.3 hPa | - | - | - | - |
| 1788558473 | 23.89° C | 60% | 1016.7 hPa | - | - | - | - |
| 1788554873 | 23.89° C | 59% | 1016.8 hPa | - | - | - | - |
| 1788553673 | 23.89° C | 61% | 1016.4 hPa | - | - | - | - |
| 1788552473 | 23.89° C | 60% | 1016.7 hPa | - | - | - | - |
| 1788535673 | 23.89° C | 61% | 1015.9 hPa | - | - | - | - |
| 1788532073 | 23.33° C | 65% | 1016.7 hPa | - | - | - | - |
| 1788530875 | 23.33° C | 65% | 1016.9 hPa | - | - | - | - |
| 1788529674 | 23.33° C | 63% | 1016.9 hPa | - | - | - | - |
| 1788528474 | 23.33° C | 64% | 1016.9 hPa | - | - | - | - |
| 1788527274 | 23.33° C | 65% | 1016.8 hPa | - | - | - | - |
| 1788524874 | 23.33° C | 66% | 1016.6 hPa | - | - | - | - |
| 1788523674 | 23.33° C | 67% | 1016 hPa | - | - | - | - |
| 1788522474 | 23.33° C | 67% | 1016 hPa | - | - | - | - |
* Rain since midnight (hover to see other rain measurements)
** Current wind speed in m/s (hover to see current wind gust speed)